"2010-03-05 00:00:00",1734039,5.237,146.2,3.797,1.417,10.98,104.0977,9.76,10.85,30.11,0,110.3,13.34,10.55,108.2
"2010-03-05 00:00:30",1734040,4.65,148.5,6.889,1.308,11.02,104.1003,9.77,11.08,30.26,0,110.3,13.33,10.56,110.5
"2010-03-05 00:01:00",1734041,5.744,152.2,6.21,1.162,12.34,104.1012,9.77,10.97,30.18,0,110.3,13.33,10.56,114.2
"2010-03-05 00:01:30",1734042,4.565,142.6,5.349,1.063,10.08,104.1015,9.77,10.97,30.2,0,110.3,13.34,10.56,104.6
"2010-03-05 00:02:00",1734043,4.356,138.3,7.701,0.905,10.01,104.1033,9.78,10.88,30.14,0,110.3,13.34,10.56,100.3
"2010-03-05 00:02:30",1734044,4.265,131.7,2.338,0.675,8.75,104.1012,9.77,10.79,30.17,0,110.3,13.33,10.56,93.7
"2010-03-05 00:03:00",1734045,4.861,133.8,4.894,0.994,10.35,104.1019,9.77,10.97,30.44,0,110.2,13.33,10.56,95.8
"2010-03-05 00:03:30",1734046,5.974,138.2,7.463,1.295,12.34,104.0977,9.76,10.93,30.69,0,110.3,13.34,10.55,100.2
"2010-03-05 00:04:00",1734047,4.501,138.3,6.463,0.919,10.07,104.0978,9.76,10.96,30.96,0,110.3,13.34,10.55,100.3
"2010-03-05 00:04:30",1734048,5.31,145.2,6.399,1.245,11.12,104.094,9.75,10.85,30.37,0,110.3,13.33,10.54,107.2
"2010-03-05 00:05:00",1734049,6.068,142.2,6.053,1.312,11.52,104.0902,9.74,11,30.46,0,110.3,13.33,10.53,104.2
"2010-03-05 00:05:30",1734050,6.178,140.9,6.19,1.381,11.53,104.0934,9.75,10.91,30.4,0,110.2,13.33,10.54,102.9
"2010-03-05 00:06:00",1734051,5.017,138.9,2.052,0.154,9.22,104.0906,9.75,10.77,30.24,0,110.2,13.36,10.53,100.9
"2010-03-05 00:06:30",1734052,6.743,148.8,6.612,1.236,12.33,104.0878,9.74,10.93,30.36,0,110.2,13.33,10.52,110.8
"2010-03-05 00:07:00",1734053,6.422,146.2,8.28,1.226,12.02,104.0806,9.72,10.99,30.53,0,110.2,13.33,10.51,108.2
"2010-03-05 00:07:30",1734054,7.193,143.8,5.261,1.043,12.83,104.0835,9.73,10.9,30.59,0,110.2,13.33,10.51,105.8
"2010-03-05 00:08:00",1734055,5.547,136.8,5.055,0.927,10.03,104.0835,9.73,10.9,30.59,0,110.2,13.33,10.51,98.8
"2010-03-05 00:08:30",1734056,6.41,140.5,7.885,1.318,11.7,104.0867,9.74,10.86,30.52,0,110.2,13.33,10.52,102.5
"2010-03-05 00:09:00",1734057,5.269,134.1,5.715,1.223,10.02,104.0851,9.73,10.8,30.5,0,110.2,13.33,10.52,96.1
"2010-03-05 00:09:30",1734058,5.922,138.8,6.519,1.365,11.76,104.0815,9.72,10.87,30.64,0,110.2,13.33,10.51,100.8
"2010-03-05 00:10:00",1734059,5.737,142.4,7.48,1.3,11.61,104.0747,9.71,10.98,30.88,0,110.2,13.33,10.49,104.4
"2010-03-05 00:10:30",1734060,6.182,142.8,6.257,1.276,11.97,104.0638,9.68,10.88,30.84,0,110.2,13.34,10.46,104.8
"2010-03-05 00:11:00",1734061,5.034,139,5.682,0.698,9.61,104.0599,9.67,10.85,30.97,0,110.2,13.34,10.45,101.0
"2010-03-05 00:11:30",1734062,5.463,136,5.264,1.233,10.35,104.0599,9.67,10.76,30.99,0,110.2,13.33,10.45,98.0
"2010-03-05 00:12:00",1734063,5.83,143.9,6.203,1.42,11.19,104.0602,9.67,10.8,31,0,110.2,13.34,10.45,105.9
"2010-03-05 00:12:30",1734064,5.575,144.4,6.893,1.291,11.65,104.062,9.67,10.8,31.04,0,110.2,13.34,10.46,106.4
"2010-03-05 00:13:00",1734065,4.884,137.3,6.008,1.142,11.25,104.0611,9.67,10.83,31.24,0,110.2,13.34,10.46,99.3
"2010-03-05 00:13:30",1734066,5.918,143.9,5.995,1.169,12.93,104.0571,9.66,10.84,31.12,0,110.3,13.34,10.45,105.9
"2010-03-05 00:14:00",1734067,5.721,142.7,7.215,1.244,12.42,104.0555,9.66,10.92,31.1,0,110.2,13.34,10.44,104.7
"2010-03-05 00:14:30",1734068,4.865,135.4,4.956,1.127,9.69,104.0533,9.65,10.69,30.9,0,110.2,13.34,10.44,97.4
"2010-03-05 00:15:00",1734069,4.397,135.5,6.558,0.952,9.81,104.0445,9.63,10.8,30.99,0,110.2,13.34,10.41,97.5
"2010-03-05 00:15:30",1734070,4.738,140.1,5.237,1.17,9.98,104.0406,9.62,10.65,30.84,0,110.2,13.34,10.40,102.1
"2010-03-05 00:16:00",1734071,4.42,136.9,3.752,0.768,9.55,104.0408,9.62,10.63,30.87,0,110.2,13.34,10.40,98.9
"2010-03-05 00:16:30",1734072,4.48,137,4.633,1.071,10.06,104.0377,9.61,10.67,30.92,0,110.2,13.34,10.40,99.0
"2010-03-05 00:17:00",1734073,5.795,144.4,6.9,1.324,13.05,104.0324,9.6,10.88,31.16,0,110.2,13.34,10.38,106.4
"2010-03-05 00:17:30",1734074,5.856,144.2,7.221,1.247,12.97,104.0293,9.59,10.91,31.23,0,110.2,13.34,10.37,106.2
"2010-03-05 00:18:00",1734075,5.099,134.5,4.84,1.199,10.72,104.0284,9.59,10.74,31.11,0,110.2,13.34,10.37,96.5
"2010-03-05 00:18:30",1734076,5.549,139.5,6.233,1.282,10.8,104.0284,9.59,10.77,31.12,0,110.2,13.34,10.37,101.5
"2010-03-05 00:19:00",1734077,4.914,132.6,5.284,0.87,9.8,104.0284,9.59,10.75,31.15,0,110.2,13.34,10.37,94.6
"2010-03-05 00:19:30",1734078,4.559,131.9,0.914,0.094,8.94,104.0279,9.59,10.6,30.97,0,110.2,13.38,10.37,93.9
"2010-03-05 00:20:00",1734079,5.804,137.8,6.217,1.28,11.45,104.0245,9.58,10.64,31.04,0,110.2,13.34,10.36,99.8
"2010-03-05 00:20:30",1734080,5.359,129.4,7.297,1.183,11.83,104.0169,9.56,10.77,31.34,0,110.2,13.34,10.34,91.4
"2010-03-05 00:21:00",1734081,6.524,137.9,3.536,0.45,14.26,104.0107,9.54,10.84,31.57,0,110.2,13.34,10.33,99.9
"2010-03-05 00:21:30",1734082,4.681,129,7.756,1.276,10.86,103.9988,9.51,10.66,31.55,0,110.2,13.34,10.30,91.0
"2010-03-05 00:22:00",1734083,4.414,125.6,6.434,1.081,9.98,103.9949,9.5,10.7,31.84,0,110.2,13.33,10.29,87.6
"2010-03-05 00:22:30",1734084,4.329,128,3.985,0.979,9.28,103.9946,9.5,10.62,31.77,0,110.2,13.33,10.29,90.0
"2010-03-05 00:23:00",1734085,3.889,125.2,0.981,0.082,8.82,103.9946,9.5,10.54,31.49,0,110.2,13.37,10.29,87.2
"2010-03-05 00:23:30",1734086,4.039,126.5,3.24,0.485,9.23,103.9946,9.5,10.55,31.41,0,110.2,13.34,10.29,88.5
"2010-03-05 00:24:00",1734087,5.14,130.1,8.38,1.34,11.06,103.9934,9.5,10.54,31.59,0,110.2,13.34,10.28,92.1
"2010-03-05 00:24:30",1734088,5.899,137.2,5.823,1.226,13.11,103.9881,9.48,10.77,32,0,110.2,13.34,10.27,99.2
"2010-03-05 00:25:00",1734089,6.006,137,6.901,1.279,12.64,103.9819,9.47,10.77,31.89,0,110.2,13.34,10.25,99.0
"2010-03-05 00:25:30",1734090,4.875,127.5,6.34,1.125,10.3,103.9723,9.44,10.59,31.78,0,110.2,13.34,10.23,89.5
"2010-03-05 00:26:00",1734091,5.523,129.9,6.022,1.333,10.59,103.9616,9.42,10.59,31.79,0,110.2,13.34,10.20,91.9
"2010-03-05 00:26:30",1734092,4.38,126,1.875,0.112,8.66,103.9607,9.41,10.5,31.75,0,110.2,13.38,10.20,88.0
"2010-03-05 00:27:00",1734093,4.633,127.9,1.641,0.096,9.06,103.9607,9.41,10.47,31.83,0,110.2,13.38,10.20,89.9
"2010-03-05 00:27:30",1734094,5.994,129.6,6.169,1.429,11.9,103.9604,9.41,10.64,32.11,0,110.2,13.35,10.20,91.6
"2010-03-05 00:28:00",1734095,6.832,133.4,6.702,1.24,12.9,103.9551,9.4,10.69,32.2,0,110.2,13.35,10.18,95.4
"2010-03-05 00:28:30",1734096,7.238,136.6,6.453,1.136,13,103.9455,9.37,10.75,32.13,0,110.2,13.35,10.16,98.6
"2010-03-05 00:29:00",1734097,7.508,139.5,7.364,1.106,12.48,103.9322,9.34,10.6,32.1,0,110.2,13.34,10.13,101.5
"2010-03-05 00:29:30",1734098,6.834,135.3,7.228,1.46,10.81,103.9269,9.33,10.57,32.4,0,110.2,13.34,10.11,97.3
"2010-03-05 00:30:00",1734099,5.949,128.4,1.192,0.463,8.95,103.9269,9.33,10.4,32.48,0,110.2,13.34,10.11,90.4
"2010-03-05 00:30:30",1734100,5.652,126.9,0.814,0.206,9.48,103.9266,9.33,10.47,32.52,0,110.2,13.38,10.11,88.9
"2010-03-05 00:31:00",1734101,7.157,134,7.585,1.115,13.83,103.9204,9.31,10.54,32.65,0,110.2,13.35,10.10,96.0
"2010-03-05 00:31:30",1734102,7.57,135.3,3.987,0.727,14.3,103.9074,9.28,10.69,32.94,0,110.2,13.35,10.06,97.3
"2010-03-05 00:32:00",1734103,7.226,133.1,5.604,1.202,13.02,103.8978,9.25,10.58,32.76,0,110.2,13.35,10.04,95.1
"2010-03-05 00:32:30",1734104,6.454,133.1,6.887,1.248,11.04,103.893,9.24,10.48,32.74,0,110.2,13.35,10.02,95.1
"2010-03-05 00:33:00",1734105,5.453,124.9,2.75,0.135,9.19,103.893,9.24,10.42,32.8,0,110.2,13.38,10.02,86.9
"2010-03-05 00:33:30",1734106,5.62,129.9,1.371,0.142,9.03,103.893,9.24,10.3,32.76,0,110.2,13.38,10.02,91.9
"2010-03-05 00:34:00",1734107,6.371,134.8,7.725,1.091,10.97,103.8899,9.23,10.49,32.96,0,110.2,13.35,10.02,96.8
"2010-03-05 00:34:30",1734108,7.941,143.6,5.648,0.825,14.14,103.8739,9.19,10.59,33.12,0,110.2,13.35,9.98,105.6
"2010-03-05 00:35:00",1734109,7.856,145.1,4.606,0.806,14.05,103.8603,9.16,10.58,33.05,0,110.2,13.35,9.94,107.1
"2010-03-05 00:35:30",1734110,7.338,139.9,6.335,1.187,12.42,103.863,9.16,10.36,32.82,0,110.2,13.35,9.95,101.9
"2010-03-05 00:36:00",1734111,6.007,130.1,4.476,0.842,10.56,103.8653,9.17,10.39,32.9,0,110.2,13.35,9.95,92.1
"2010-03-05 00:36:30",1734112,5.471,128.9,4.147,0.962,9.69,103.8691,9.18,10.23,32.84,0,110.2,13.35,9.96,90.9
"2010-03-05 00:37:00",1734113,5.345,128.1,1.475,0.11,9.31,103.8674,9.17,10.22,32.82,0,110.2,13.39,9.96,90.1
"2010-03-05 00:37:30",1734114,6.55,132.4,6.172,1.263,11.87,103.8616,9.16,10.39,33.13,0,110.2,13.35,9.94,94.4
"2010-03-05 00:38:00",1734115,7.553,138.3,6.484,1.004,14.21,103.8628,9.16,10.5,33.36,0,110.2,13.35,9.95,100.3
"2010-03-05 00:38:30",1734116,6.901,136.9,5.989,1.168,13.31,103.8537,9.14,10.43,33.33,0,110.2,13.34,9.92,98.9
"2010-03-05 00:39:00",1734117,6.37,135.7,5.836,1.208,11,103.8499,9.13,10.36,33.17,0,110.2,13.34,9.91,97.7
"2010-03-05 00:39:30",1734118,6.538,135.4,4.063,1.118,10.03,103.8529,9.14,10.18,32.95,0,110.2,13.34,9.92,97.4
"2010-03-05 00:40:00",1734119,5.997,135.9,1.125,0.165,9.18,103.854,9.14,10.16,32.86,0,110.2,13.38,9.92,97.9
"2010-03-05 00:40:30",1734120,7.011,139.5,6.059,1.25,11.03,103.8553,9.14,10.16,32.86,0,110.2,13.35,9.93,101.5
"2010-03-05 00:41:00",1734121,7.88,147.3,5.706,1.104,13.67,103.8471,9.12,10.45,33.16,0,110.1,13.35,9.91,109.3
"2010-03-05 00:41:30",1734122,7.608,145.2,6.057,1.092,13.36,103.8396,9.1,10.39,33.11,0,110.2,13.35,9.89,107.2
"2010-03-05 00:42:00",1734123,7.32,142.6,6.732,1.289,12.89,103.8269,9.07,10.39,33.18,0,110.1,13.35,9.86,104.6
"2010-03-05 00:42:30",1734124,6.353,137.4,6.546,1.225,10.4,103.8266,9.07,10.15,32.96,0,110.1,13.35,9.85,99.4
"2010-03-05 00:43:00",1734125,5.698,135.8,4.466,0.782,10.21,103.8266,9.07,10.19,33.06,0,110.1,13.35,9.85,97.8
"2010-03-05 00:43:30",1734126,6.314,139.4,6.165,1.284,11.52,103.8266,9.07,10.15,33.06,0,110.1,13.35,9.85,101.4
"2010-03-05 00:44:00",1734127,6.801,142.1,6.566,1.403,12.64,103.826,9.07,10.34,33.28,0,110.1,13.35,9.85,104.1
"2010-03-05 00:44:30",1734128,7.388,143.4,6.605,1.144,13.3,103.8181,9.05,10.29,33.28,0,110.1,13.36,9.83,105.4
"2010-03-05 00:45:00",1734129,7.263,141.9,6.861,1.22,13.02,103.81,9.03,10.31,33.31,0,110.1,13.36,9.81,103.9
"2010-03-05 00:45:30",1734130,7.297,142.6,6.101,1.277,12.61,103.8074,9.02,10.24,33.27,0,110.1,13.36,9.81,104.6
"2010-03-05 00:46:00",1734131,5.787,132.4,4.226,0.808,9.56,103.7942,8.99,10.08,33.21,0,110.1,13.36,9.77,94.4
"2010-03-05 00:46:30",1734132,6.002,133.7,6.491,1.139,10.94,103.7927,8.98,10.17,33.38,0,110.1,13.36,9.77,95.7
"2010-03-05 00:47:00",1734133,6.668,134.1,6.257,1.338,11.78,103.7927,8.98,10.15,33.41,0,110.1,13.36,9.77,96.1
"2010-03-05 00:47:30",1734134,6.75,138.2,7.586,1.282,12.27,103.7927,8.98,10.23,33.51,0,110.1,13.36,9.77,100.2
"2010-03-05 00:48:00",1734135,6.822,139.3,7.714,1.329,12.15,103.7927,8.98,10.17,33.38,0,110.1,13.36,9.77,101.3
"2010-03-05 00:48:30",1734136,6.864,138.8,6.565,1.139,12.55,103.7894,8.98,10.17,33.5,0,110.1,13.36,9.76,100.8
"2010-03-05 00:49:00",1734137,6.275,135,6.681,1.112,11.47,103.7767,8.94,10.12,33.51,0,110.1,13.36,9.73,97.0
"2010-03-05 00:49:30",1734138,6.575,136.1,5.524,1.246,10.79,103.76,8.9,9.97,33.37,0,110.2,13.36,9.68,98.1
"2010-03-05 00:50:00",1734139,6.54,138.9,6.426,1.249,11.48,103.7589,8.9,10.09,33.51,0,110.1,13.36,9.68,100.9
"2010-03-05 00:50:30",1734140,6.051,135.7,4.778,1.042,10.26,103.7589,8.9,10,33.46,0,110.1,13.36,9.68,97.7
"2010-03-05 00:51:00",1734141,7.289,141.9,6.703,1.179,13.22,103.7589,8.9,10.17,33.61,0,110.1,13.36,9.68,103.9
"2010-03-05 00:51:30",1734142,6.512,136.5,5.775,1.195,11.89,103.7589,8.9,10.14,33.65,0,110.1,13.37,9.68,98.5
"2010-03-05 00:52:00",1734143,6.548,135.1,5.967,1.305,11.98,103.7583,8.9,10.08,33.64,0,110.1,13.37,9.68,97.1
"2010-03-05 00:52:30",1734144,6.355,133.4,6.871,1.291,12.04,103.7518,8.88,10.19,33.82,0,110.1,13.37,9.66,95.4
"2010-03-05 00:53:00",1734145,5.755,127.1,4.968,0.924,10.03,103.7425,8.86,9.99,33.75,0,110.1,13.37,9.64,89.1
"2010-03-05 00:53:30",1734146,7.262,135.2,6.166,1.181,12.66,103.7296,8.82,10.02,33.72,0,110.1,13.37,9.61,97.2
"2010-03-05 00:54:00",1734147,6.149,128.3,6.604,1.163,10.88,103.7271,8.82,10.05,33.75,0,110.1,13.37,9.60,90.3
"2010-03-05 00:54:30",1734148,7.379,134,6.641,1.198,13.12,103.7285,8.82,10.05,33.81,0,110.1,13.37,9.60,96.0
"2010-03-05 00:55:00",1734149,7.125,133.4,6.854,1.234,12.31,103.732,8.83,10.11,34.07,0,110.1,13.36,9.61,95.4
"2010-03-05 00:55:30",1734150,7.482,135.2,5.659,1.252,13.12,103.7353,8.84,10.14,34.25,0,110.1,13.36,9.62,97.2
"2010-03-05 00:56:00",1734151,6.119,128.7,4.868,0.987,10.86,103.7391,8.85,10,34.12,0,110.1,13.37,9.63,90.7
"2010-03-05 00:56:30",1734152,7.073,132.1,6.638,1.332,11.79,103.7395,8.85,9.87,34.06,0,110.1,13.36,9.63,94.1
"2010-03-05 00:57:00",1734153,5.593,122.2,2.786,0.727,9.61,103.7367,8.84,9.95,34.21,0,110.1,13.36,9.62,84.2
"2010-03-05 00:57:30",1734154,7.005,130.3,6.563,1.28,11.7,103.7325,8.83,9.91,34.2,0,110.1,13.37,9.61,92.3
"2010-03-05 00:58:00",1734155,6.802,128.7,6.557,1.314,12.05,103.7227,8.8,10.09,34.47,0,110.1,13.37,9.59,90.7
"2010-03-05 00:58:30",1734156,7.302,131.2,5.766,1.151,13.4,103.7216,8.8,10.07,34.44,0,110.1,13.37,9.58,93.2
"2010-03-05 00:59:00",1734157,6.504,128.6,6.661,1.269,11.93,103.7242,8.81,10.03,34.47,0,110.1,13.37,9.59,90.6
"2010-03-05 00:59:30",1734158,5.895,126.3,3.455,0.944,9.68,103.7254,8.81,9.81,34.37,0,110.1,13.37,9.59,88.3
"2010-03-05 01:00:00",1734159,6.708,131,6.086,1.296,11.53,103.7257,8.81,9.96,34.62,0,110.1,13.37,9.60,93.0
"2010-03-05 01:00:30",1734160,5.874,127.6,6.314,0.959,10.65,103.7263,8.81,9.97,34.66,0,110.1,13.38,9.60,89.6
"2010-03-05 01:01:00",1734161,7.097,132.4,6.426,1.192,12.17,103.7263,8.81,9.88,34.63,0,110.1,13.38,9.60,94.4
"2010-03-05 01:01:30",1734162,7.261,133.9,6.284,1.126,13.11,103.7263,8.81,10.02,34.86,0,110.1,13.38,9.60,95.9
"2010-03-05 01:02:00",1734163,7.203,134.6,6.487,1.254,12.68,103.7246,8.81,10.06,35.01,0,110.1,13.38,9.59,96.6
"2010-03-05 01:02:30",1734164,6.287,130.8,6.13,1.143,11.11,103.7153,8.79,9.91,35,0,110.1,13.38,9.57,92.8
"2010-03-05 01:03:00",1734165,6.89,133,6.921,1.35,11.46,103.7034,8.76,9.91,35.05,0,110.1,13.38,9.54,95.0
"2010-03-05 01:03:30",1734166,5.825,128.2,3.276,0.485,9.76,103.6964,8.74,9.89,35.06,0,110.1,13.38,9.52,90.2
"2010-03-05 01:04:00",1734167,6.904,132.1,5.205,1.381,11.55,103.693,8.73,9.82,35.08,0,110.1,13.38,9.51,94.1
"2010-03-05 01:04:30",1734168,7.201,134.3,6.335,1.241,12.9,103.6924,8.73,10,35.31,0,110.1,13.38,9.51,96.3
"2010-03-05 01:05:00",1734169,8.24,139.5,4.221,0.761,14.1,103.6924,8.73,10.05,35.35,0,110.1,13.38,9.51,101.5
"2010-03-05 01:05:30",1734170,7.655,133.4,6.759,1.282,11.99,103.6924,8.73,9.87,35.13,0,110.1,13.38,9.51,95.4
"2010-03-05 01:06:00",1734171,6.637,127.2,4.424,0.804,10.07,103.6924,8.73,9.87,35.08,0,110.1,13.38,9.51,89.2
"2010-03-05 01:06:30",1734172,7.298,128.6,6.672,1.237,10.67,103.6924,8.73,9.73,35.01,0,110.1,13.38,9.51,90.6
"2010-03-05 01:07:00",1734173,7.417,131.4,6.603,1.277,11.91,103.6924,8.73,9.89,35.24,0,110.1,13.38,9.51,93.4
"2010-03-05 01:07:30",1734174,8.2,134.5,5.61,1.169,13.02,103.6924,8.73,9.95,35.42,0,110.1,13.38,9.51,96.5
"2010-03-05 01:08:00",1734175,8.77,136.5,4.669,0.995,13.86,103.6859,8.71,10.01,35.82,0,110.1,13.38,9.49,98.5
"2010-03-05 01:08:30",1734176,8.58,137.2,4.893,1.123,13.8,103.6772,8.69,10,36.11,0,110.1,13.38,9.47,99.2
"2010-03-05 01:09:00",1734177,7.482,132.4,6.725,1.305,11.48,103.6664,8.66,9.87,35.98,0,110.1,13.38,9.44,94.4
"2010-03-05 01:09:30",1734178,7.092,130.3,6.052,1.218,10.37,103.6591,8.64,9.73,35.87,0,110.1,13.38,9.42,92.3
"2010-03-05 01:10:00",1734179,7.168,132.4,6.709,1.265,11.52,103.6585,8.64,9.82,36.12,0,110.1,13.38,9.42,94.4
"2010-03-05 01:10:30",1734180,6.721,129.2,5.7,1.112,10.85,103.6585,8.64,9.77,36.14,0,110,13.38,9.42,91.2
"2010-03-05 01:11:00",1734181,8.34,136.6,4.36,0.883,13.8,103.6585,8.64,9.98,36.37,0,110.1,13.38,9.42,98.6
"2010-03-05 01:11:30",1734182,8.13,135,4.513,0.978,13.94,103.6585,8.64,9.97,36.5,0,110.1,13.38,9.42,97.0
"2010-03-05 01:12:00",1734183,7.181,131.1,6.661,1.327,12.05,103.6588,8.64,9.9,36.52,0,110.1,13.38,9.42,93.1
"2010-03-05 01:12:30",1734184,6.966,130.8,6.81,1.362,11.28,103.6594,8.64,9.72,36.37,0,110.1,13.38,9.43,92.8
"2010-03-05 01:13:00",1734185,6.293,128.4,6.14,1.189,10.6,103.6612,8.65,9.81,36.46,0,110.1,13.38,9.43,90.4
"2010-03-05 01:13:30",1734186,5.413,123.2,0.704,0.09,9.3,103.6623,8.65,9.66,36.4,0,110.1,13.41,9.43,85.2
"2010-03-05 01:14:00",1734187,7.107,132.7,6.327,1.223,12.92,103.6638,8.65,9.92,36.52,0,110.1,13.39,9.44,94.7
"2010-03-05 01:14:30",1734188,7.796,135.6,3.903,0.698,14.49,103.6639,8.65,9.97,36.62,0,110.1,13.39,9.44,97.6
"2010-03-05 01:15:00",1734189,6.877,129.6,6.448,1.222,11.99,103.6596,8.64,9.9,36.65,0,110.1,13.39,9.43,91.6
"2010-03-05 01:15:30",1734190,6.705,128.5,5.622,1.202,10.32,103.6558,8.63,9.65,36.63,0,110.1,13.39,9.42,90.5
"2010-03-05 01:16:00",1734191,7.191,130.2,6.569,1.307,11.35,103.6524,8.63,9.79,37.03,0,110.1,13.39,9.41,92.2
"2010-03-05 01:16:30",1734192,5.951,123.8,0.433,0.03,9.27,103.6522,8.62,9.65,37.12,0,110.1,13.42,9.41,85.8
"2010-03-05 01:17:00",1734193,6.921,129.5,6.469,1.265,11.45,103.6463,8.61,9.84,37.48,0,110.1,13.39,9.39,91.5
"2010-03-05 01:17:30",1734194,8.04,136.4,3.05,0.812,14.14,103.6462,8.61,9.95,37.45,0,110.1,13.39,9.39,98.4
"2010-03-05 01:18:00",1734195,7.707,134.9,4.945,0.994,13.68,103.6478,8.61,9.96,37.28,0,110.1,13.39,9.40,96.9
"2010-03-05 01:18:30",1734196,5.955,126.2,4.05,0.893,9.49,103.6495,8.62,9.62,37,0,110.1,13.39,9.40,88.2
"2010-03-05 01:19:00",1734197,6.812,131.2,6.723,1.303,11.2,103.6516,8.62,9.78,37.3,0,110.1,13.39,9.41,93.2
"2010-03-05 01:19:30",1734198,5.611,124,0.421,0.034,9,103.6548,8.63,9.61,37.31,0,110.1,13.43,9.41,86.0
"2010-03-05 01:20:00",1734199,5.812,126.1,3.578,0.804,9.86,103.6557,8.63,9.69,37.47,0,110,13.4,9.42,88.1
"2010-03-05 01:20:30",1734200,7.588,137,4.635,1.057,13.67,103.6545,8.63,9.89,37.73,0,110,13.4,9.41,99.0
"2010-03-05 01:21:00",1734201,7.69,135.8,5.4,0.988,13.74,103.6571,8.64,9.87,37.8,0,110,13.4,9.42,97.8
"2010-03-05 01:21:30",1734202,7.052,134.2,6.645,1.281,12.71,103.6595,8.64,9.86,37.9,0,110,13.4,9.43,96.2
"2010-03-05 01:22:00",1734203,6.527,130.1,5.827,1.215,10.46,103.6552,8.63,9.61,37.91,0,110,13.4,9.41,92.1
"2010-03-05 01:22:30",1734204,6.809,132.9,6.336,1.252,11.28,103.6527,8.63,9.73,38.27,0,110,13.4,9.41,94.9
"2010-03-05 01:23:00",1734205,5.602,126.6,0.02,0.028,9.18,103.6482,8.61,9.58,38.27,0,110,13.43,9.40,88.6
"2010-03-05 01:23:30",1734206,6.927,132.5,6.62,1.318,11.87,103.6397,8.59,9.74,38.43,0,110,13.4,9.37,94.5
"2010-03-05 01:24:00",1734207,7.818,137.8,2.718,0.892,14.26,103.6377,8.59,9.89,38.61,0,110,13.4,9.37,99.8
"2010-03-05 01:24:30",1734208,7.02,133.8,6.344,1.271,12.71,103.6276,8.56,9.86,38.56,0,110,13.4,9.34,95.8
"2010-03-05 01:25:00",1734209,6.339,129.9,6.233,1.195,11.22,103.6259,8.56,9.75,38.43,0,110,13.4,9.34,91.9
"2010-03-05 01:25:30",1734210,6.743,131.2,6.756,1.274,10.8,103.6259,8.56,9.61,38.38,0,110,13.4,9.34,93.2
"2010-03-05 01:26:00",1734211,5.584,123.1,0.593,0.048,8.93,103.6259,8.56,9.56,38.48,0,110,13.43,9.34,85.1
"2010-03-05 01:26:30",1734212,6.192,124.9,4.998,1.062,10.12,103.6259,8.56,9.61,38.59,0,110,13.4,9.34,86.9
"2010-03-05 01:27:00",1734213,7.66,132.2,6.401,1.157,12.96,103.6259,8.56,9.81,38.91,0,110.1,13.4,9.34,94.2
"2010-03-05 01:27:30",1734214,7.835,135.2,5.665,1.096,13.42,103.6259,8.56,9.78,39.12,0,110,13.4,9.34,97.2
"2010-03-05 01:28:00",1734215,7.62,134,6.438,1.197,12.93,103.6259,8.56,9.83,39.21,0,110.1,13.39,9.34,96.0
"2010-03-05 01:28:30",1734216,6.969,130.4,6.289,1.323,11.58,103.6259,8.56,9.75,39.15,0,110.1,13.39,9.34,92.4
"2010-03-05 01:29:00",1734217,6.471,126,5.236,1.021,9.81,103.6259,8.56,9.54,38.9,0,110,13.39,9.34,88.0
"2010-03-05 01:29:30",1734218,6.748,128.8,6.082,1.23,11.04,103.6259,8.56,9.68,38.97,0,110,13.39,9.34,90.8
"2010-03-05 01:30:00",1734219,7.318,130.9,6.77,1.215,12.05,103.6259,8.56,9.7,38.94,0,110,13.39,9.34,92.9
"2010-03-05 01:30:30",1734220,7.474,133.8,6.229,1.21,13.25,103.6259,8.56,9.8,39,0,110,13.4,9.34,95.8
"2010-03-05 01:31:00",1734221,7.371,132.5,5.762,1.177,13.44,103.6259,8.56,9.85,39.01,0,110,13.39,9.34,94.5
"2010-03-05 01:31:30",1734222,7.112,129.7,6.462,1.239,11.99,103.6259,8.56,9.64,38.73,0,110,13.4,9.34,91.7
"2010-03-05 01:32:00",1734223,5.36,122.3,0.808,0.039,8.92,103.6256,8.56,9.53,38.63,0,110,13.43,9.34,84.3
"2010-03-05 01:32:30",1734224,5.403,121.1,0.72,0.043,8.89,103.6217,8.55,9.58,38.65,0,110,13.44,9.33,83.1
"2010-03-05 01:33:00",1734225,7.176,132.5,6.216,1.179,12.6,103.6171,8.53,9.64,38.75,0,110,13.4,9.32,94.5
"2010-03-05 01:33:30",1734226,7.179,133.7,5.562,1.143,13.19,103.6132,8.52,9.76,38.85,0,110,13.4,9.31,95.7
"2010-03-05 01:34:00",1734227,6.832,131.6,6.283,1.27,12.58,103.6078,8.51,9.76,38.67,0,110,13.4,9.29,93.6
"2010-03-05 01:34:30",1734228,6.93,131.7,6.359,1.195,12.95,103.6064,8.51,9.74,38.61,0,110,13.4,9.29,93.7
"2010-03-05 01:35:00",1734229,6.945,131.1,6.607,1.216,12.36,103.6056,8.51,9.67,38.47,0,110,13.4,9.29,93.1
"2010-03-05 01:35:30",1734230,5.847,123.4,5.213,1.055,9.61,103.6002,8.49,9.51,38.36,0,110,13.4,9.27,85.4
"2010-03-05 01:36:00",1734231,6.318,125.9,6.546,1.223,10.94,103.5957,8.48,9.66,38.6,0,110,13.41,9.26,87.9
"2010-03-05 01:36:30",1734232,6.701,127.8,6.9,1.288,12.02,103.5928,8.47,9.76,38.78,0,110,13.41,9.25,89.8
"2010-03-05 01:37:00",1734233,7.499,131.2,5.83,1.061,13.16,103.592,8.47,9.67,38.7,0,110,13.41,9.25,93.2
"2010-03-05 01:37:30",1734234,7.189,131.2,6.042,1.208,13.19,103.5923,8.47,9.71,38.78,0,110,13.41,9.25,93.2
"2010-03-05 01:38:00",1734235,7.412,129.2,6.386,1.103,12.52,103.5923,8.47,9.66,38.69,0,110,13.41,9.25,91.2
"2010-03-05 01:38:30",1734236,5.652,119.5,1.263,0.559,8.93,103.592,8.47,9.51,38.64,0,110,13.41,9.25,81.5
"2010-03-05 01:39:00",1734237,6.448,123.9,6.36,1.244,11.01,103.5923,8.47,9.59,38.82,0,110,13.41,9.25,85.9
"2010-03-05 01:39:30",1734238,6.738,125.7,6.603,1.287,11.58,103.5923,8.47,9.7,39.04,0,110,13.41,9.25,87.7
"2010-03-05 01:40:00",1734239,6.778,125.6,6.671,1.28,12.12,103.592,8.47,9.65,39.02,0,110,13.41,9.25,87.6
"2010-03-05 01:40:30",1734240,7.295,126.3,6.482,1.161,12.69,103.5923,8.47,9.71,39.16,0,110.1,13.41,9.25,88.3
"2010-03-05 01:41:00",1734241,7.46,129,5.441,1.122,12.7,103.592,8.47,9.71,39.13,0,110,13.41,9.25,91.0
"2010-03-05 01:41:30",1734242,5.862,121,5.033,0.969,9.94,103.592,8.47,9.54,38.95,0,110,13.41,9.25,83.0
"2010-03-05 01:42:00",1734243,6.481,125.1,6.579,1.267,11,103.5923,8.47,9.57,38.92,0,110,13.41,9.25,87.1
"2010-03-05 01:42:30",1734244,6.202,124.3,6.792,1.206,11.11,103.5929,8.47,9.69,39.02,0,109.9,13.41,9.25,86.3
"2010-03-05 01:43:00",1734245,6.017,122.5,5.505,1.116,10.48,103.5923,8.47,9.55,38.94,0,110,13.41,9.25,84.5
"2010-03-05 01:43:30",1734246,7.285,130.4,5.729,1.16,13.01,103.5929,8.47,9.71,39.09,0,110,13.4,9.25,92.4
"2010-03-05 01:44:00",1734247,7.352,128.7,6.052,1.175,12.61,103.5932,8.47,9.65,39.04,0,110,13.41,9.26,90.7
"2010-03-05 01:44:30",1734248,6.892,127.3,6.766,1.272,11.67,103.5961,8.48,9.72,39.16,0,110,13.4,9.26,89.3
"2010-03-05 01:45:00",1734249,6.125,122.2,5.282,0.966,10.14,103.5949,8.48,9.63,39.19,0,110,13.4,9.26,84.2
"2010-03-05 01:45:30",1734250,6.407,124.4,5.082,1.126,10,103.597,8.48,9.51,39.07,0,110,13.4,9.27,86.4
"2010-03-05 01:46:00",1734251,7.405,129.5,6.746,1.277,12.2,103.5994,8.49,9.61,38.9,0,110,13.4,9.27,91.5
"2010-03-05 01:46:30",1734252,6.813,127,5.942,1.23,11.79,103.5962,8.48,9.69,39.02,0,110,13.4,9.26,89.0
"2010-03-05 01:47:00",1734253,7.674,129.7,6.111,1.143,12.68,103.5983,8.49,9.64,39,0,110,13.4,9.27,91.7
"2010-03-05 01:47:30",1734254,7.623,129.1,6.173,1.203,13.08,103.6003,8.49,9.73,39.09,0,110,13.4,9.27,91.1
"2010-03-05 01:48:00",1734255,6.491,122.4,5.379,1.133,10.06,103.5986,8.49,9.47,38.95,0,110,13.41,9.27,84.4
"2010-03-05 01:48:30",1734256,6.914,124.4,6.292,1.292,10.71,103.5998,8.49,9.59,39.01,0,110,13.41,9.27,86.4
"2010-03-05 01:49:00",1734257,6.752,124.5,6.604,1.23,10.72,103.6031,8.5,9.57,39.12,0,110,13.41,9.28,86.5
"2010-03-05 01:49:30",1734258,7.05,125.8,6.787,1.308,11.53,103.6022,8.5,9.57,39.38,0,110,13.41,9.28,87.8
"2010-03-05 01:50:00",1734259,7.767,129.7,6.655,1.277,12.76,103.6011,8.49,9.66,39.49,0,110,13.41,9.28,91.7
"2010-03-05 01:50:30",1734260,7.523,127.6,6.38,1.225,12.31,103.6029,8.5,9.7,39.75,0,110,13.41,9.28,89.6